Time,TemperatureF,DewpointF,PressureIn,WindDirection,WindDirectionDegrees,WindSpeedMPH,WindSpeedGustMPH,Humidity,HourlyPrecipIn,Conditions,Clouds,dailyrainin,SoftwareType,DateUTC
2013-12-10 00:01:00,-6.9,-13.0,30.00,WSW,248,0.0,1.3,74,0.00,,,0.00,VWS V14.01,2013-12-10 06:01:00,
2013-12-10 00:06:00,-6.5,-12.6,29.97,WSW,248,0.0,0.0,74,0.00,,,0.00,VWS V14.01,2013-12-10 06:06:00,
2013-12-10 00:11:00,-6.3,-12.4,29.97,SW,225,0.0,1.3,74,0.00,,,0.00,VWS V14.01,2013-12-10 06:11:00,
2013-12-10 00:16:00,-5.8,-11.9,29.97,ENE,68,0.0,0.0,74,0.00,,,0.00,VWS V14.01,2013-12-10 06:16:00,
2013-12-10 00:21:00,-5.4,-11.6,29.94,ENE,68,0.0,2.0,74,0.00,,,0.00,VWS V14.01,2013-12-10 06:21:00,
2013-12-10 00:26:00,-5.1,-11.2,29.94,ENE,68,0.0,0.0,74,0.00,,,0.00,VWS V14.01,2013-12-10 06:26:00,
2013-12-10 00:37:00,-4.7,-10.9,29.91,NE,45,0.0,0.0,74,0.00,,,0.00,VWS V14.01,2013-12-10 06:37:00,
2013-12-10 00:46:00,-4.0,-10.2,29.91,SSE,158,1.1,2.5,74,0.00,,,0.00,VWS V14.01,2013-12-10 06:46:00,
2013-12-10 00:51:00,-3.8,-10.0,29.94,SW,225,0.0,3.8,74,0.00,,,0.00,VWS V14.01,2013-12-10 06:51:00,
2013-12-10 01:01:00,-3.1,-9.3,29.94,East,90,1.6,3.8,74,0.00,,,0.00,VWS V14.01,2013-12-10 07:01:00,
2013-12-10 01:11:00,-2.6,-8.8,29.91,SSE,158,0.0,2.9,74,0.00,,,0.00,VWS V14.01,2013-12-10 07:11:00,
2013-12-10 01:16:00,-2.6,-8.8,29.91,ENE,68,0.9,4.3,74,0.00,,,0.00,VWS V14.01,2013-12-10 07:16:00,
2013-12-10 01:21:00,-2.0,-8.3,29.88,WNW,292,0.9,3.8,74,0.00,,,0.00,VWS V14.01,2013-12-10 07:21:00,
2013-12-10 01:26:00,-1.8,-8.1,29.88,ENE,68,2.0,3.4,74,0.00,,,0.00,VWS V14.01,2013-12-10 07:26:00,
2013-12-10 01:36:00,-1.1,-7.4,29.88,ENE,68,2.2,4.0,74,0.00,,,0.00,VWS V14.01,2013-12-10 07:36:00,
2013-12-10 01:41:00,-0.8,-7.0,29.88,SSW,202,1.6,4.0,74,0.00,,,0.00,VWS V14.01,2013-12-10 07:41:00,
2013-12-10 01:47:00,-0.6,-6.9,29.88,NW,315,0.0,4.3,74,0.00,,,0.00,VWS V14.01,2013-12-10 07:47:00,
2013-12-10 01:56:00,-0.4,-6.7,29.88,NNE,22,1.3,2.7,74,0.00,,,0.00,VWS V14.01,2013-12-10 07:56:00,
2013-12-10 02:06:00,-0.2,-6.5,29.85,SSW,202,3.8,5.8,74,0.00,,,0.00,VWS V14.01,2013-12-10 08:06:00,
2013-12-10 02:11:00,-0.2,-6.5,29.85,NNE,22,0.9,4.3,74,0.00,,,0.00,VWS V14.01,2013-12-10 08:11:00,
2013-12-10 02:16:00,-0.2,-6.5,29.85,West,270,0.0,6.0,74,0.00,,,0.00,VWS V14.01,2013-12-10 08:16:00,
2013-12-10 02:21:00,0.0,-6.3,29.85,East,90,0.0,3.8,74,0.00,,,0.00,VWS V14.01,2013-12-10 08:21:00,
2013-12-10 02:26:00,0.0,-6.3,29.85,NNE,22,0.9,3.4,74,0.00,,,0.00,VWS V14.01,2013-12-10 08:26:00,
2013-12-10 02:36:00,0.0,-6.3,29.85,ENE,68,2.7,2.7,74,0.00,,,0.00,VWS V14.01,2013-12-10 08:36:00,
2013-12-10 02:41:00,0.0,-6.3,29.85,South,180,1.6,3.6,74,0.00,,,0.00,VWS V14.01,2013-12-10 08:41:00,
2013-12-10 02:46:00,0.1,-6.2,29.85,South,180,0.0,5.8,74,0.00,,,0.00,VWS V14.01,2013-12-10 08:46:00,
2013-12-10 02:51:00,0.1,-6.2,29.82,ENE,68,1.3,3.8,74,0.00,,,0.00,VWS V14.01,2013-12-10 08:51:00,
2013-12-10 02:56:00,0.3,-6.0,29.82,East,90,0.0,3.4,74,0.00,,,0.00,VWS V14.01,2013-12-10 08:56:00,
2013-12-10 03:01:00,0.3,-6.0,29.82,North,0,0.9,3.1,74,0.00,,,0.00,VWS V14.01,2013-12-10 09:01:00,
2013-12-10 03:06:00,0.3,-6.0,29.82,ENE,68,0.9,2.9,74,0.00,,,0.00,VWS V14.01,2013-12-10 09:06:00,
2013-12-10 03:16:00,0.5,-5.8,29.82,South,180,2.7,2.7,74,0.00,,,0.00,VWS V14.01,2013-12-10 09:16:00,
2013-12-10 03:21:00,0.7,-5.6,29.82,NE,45,0.0,4.9,74,0.00,,,0.00,VWS V14.01,2013-12-10 09:21:00,
2013-12-10 03:26:00,0.7,-5.6,29.82,NW,315,2.0,3.4,74,0.00,,,0.00,VWS V14.01,2013-12-10 09:26:00,
2013-12-10 03:31:00,0.9,-5.5,29.82,WSW,248,1.6,5.8,74,0.00,,,0.00,VWS V14.01,2013-12-10 09:31:00,
2013-12-10 03:36:00,1.0,-5.3,29.82,WSW,248,1.6,5.8,74,0.00,,,0.00,VWS V14.01,2013-12-10 09:36:00,
2013-12-10 03:46:00,1.2,-5.1,29.82,SSE,158,1.3,2.9,74,0.00,,,0.00,VWS V14.01,2013-12-10 09:46:00,
2013-12-10 03:51:00,1.2,-5.1,29.79,South,180,0.9,2.5,74,0.00,,,0.00,VWS V14.01,2013-12-10 09:51:00,
2013-12-10 03:56:00,1.4,-4.9,29.79,SE,135,0.0,3.4,74,0.00,,,0.00,VWS V14.01,2013-12-10 09:56:00,
2013-12-10 04:01:00,1.6,-4.8,29.79,SE,135,1.3,4.0,74,0.00,,,0.00,VWS V14.01,2013-12-10 10:01:00,
2013-12-10 04:06:00,1.6,-4.8,29.79,SSW,202,0.0,3.4,74,0.00,,,0.00,VWS V14.01,2013-12-10 10:06:00,
2013-12-10 04:12:00,1.6,-4.8,29.79,WNW,292,0.0,4.0,74,0.00,,,0.00,VWS V14.01,2013-12-10 10:12:00,
2013-12-10 04:21:00,1.9,-4.4,29.79,SW,225,1.3,3.1,74,0.00,,,0.00,VWS V14.01,2013-12-10 10:21:00,
2013-12-10 04:26:00,1.9,-4.4,29.79,WNW,292,2.5,3.6,74,0.00,,,0.00,VWS V14.01,2013-12-10 10:26:00,
2013-12-10 04:31:00,2.1,-4.2,29.79,ENE,68,2.5,3.8,74,0.00,,,0.00,VWS V14.01,2013-12-10 10:31:00,
2013-12-10 04:36:00,2.3,-4.1,29.79,NNW,338,0.0,3.1,74,0.00,,,0.00,VWS V14.01,2013-12-10 10:36:00,
2013-12-10 04:41:00,2.5,-3.9,29.79,South,180,0.9,2.2,74,0.00,,,0.00,VWS V14.01,2013-12-10 10:41:00,
2013-12-10 04:46:00,2.5,-3.9,29.79,ENE,68,0.0,2.9,74,0.00,,,0.00,VWS V14.01,2013-12-10 10:46:00,
2013-12-10 04:51:00,2.5,-3.9,29.79,SSE,158,1.6,2.0,74,0.00,,,0.00,VWS V14.01,2013-12-10 10:51:00,
2013-12-10 04:56:00,2.7,-3.7,29.79,NNW,338,0.0,2.9,74,0.00,,,0.00,VWS V14.01,2013-12-10 10:56:00,
2013-12-10 05:01:00,2.8,-3.5,29.79,East,90,0.0,1.6,74,0.00,,,0.00,VWS V14.01,2013-12-10 11:01:00,
2013-12-10 05:07:00,2.8,-3.5,29.76,SSE,158,1.1,1.3,74,0.00,,,0.00,VWS V14.01,2013-12-10 11:07:00,
2013-12-10 05:16:00,2.8,-3.5,29.76,ENE,68,0.0,1.3,74,0.00,,,0.00,VWS V14.01,2013-12-10 11:16:00,
2013-12-10 05:22:00,2.8,-3.5,29.76,WSW,248,0.0,1.6,74,0.00,,,0.00,VWS V14.01,2013-12-10 11:22:00,
2013-12-10 05:31:00,2.8,-3.5,29.76,ENE,68,0.0,0.0,74,0.00,,,0.00,VWS V14.01,2013-12-10 11:31:00,
2013-12-10 05:37:00,2.7,-3.7,29.76,East,90,0.0,0.0,74,0.00,,,0.00,VWS V14.01,2013-12-10 11:37:00,
2013-12-10 05:47:00,2.5,-3.9,29.76,SSE,158,0.0,0.0,74,0.00,,,0.00,VWS V14.01,2013-12-10 11:47:00,
2013-12-10 05:56:00,2.3,-4.1,29.76,SW,225,0.0,0.9,74,0.00,,,0.00,VWS V14.01,2013-12-10 11:56:00,
2013-12-10 06:01:00,2.3,-4.1,29.76,SW,225,0.0,0.0,74,0.00,,,0.00,VWS V14.01,2013-12-10 12:01:00,
2013-12-10 06:06:00,2.5,-3.9,29.79,South,180,0.0,0.0,74,0.00,,,0.00,VWS V14.01,2013-12-10 12:06:00,
2013-12-10 06:16:00,2.8,-3.5,29.79,ESE,112,0.0,1.3,74,0.00,,,0.00,VWS V14.01,2013-12-10 12:16:00,
2013-12-10 06:21:00,2.8,-3.5,29.79,ESE,112,0.0,0.0,74,0.00,,,0.00,VWS V14.01,2013-12-10 12:21:00,
2013-12-10 06:26:00,2.8,-3.5,29.79,ESE,112,0.0,0.0,74,0.00,,,0.00,VWS V14.01,2013-12-10 12:26:00,
2013-12-10 06:31:00,2.8,-3.5,29.79,ESE,112,0.0,0.0,74,0.00,,,0.00,VWS V14.01,2013-12-10 12:31:00,
2013-12-10 06:36:00,2.8,-3.5,29.79,ESE,112,0.0,0.0,74,0.00,,,0.00,VWS V14.01,2013-12-10 12:36:00,
2013-12-10 06:41:00,2.7,-3.7,29.79,ESE,112,0.0,0.0,74,0.00,,,0.00,VWS V14.01,2013-12-10 12:41:00,
2013-12-10 06:46:00,2.5,-3.9,29.79,ESE,112,0.0,0.0,74,0.00,,,0.00,VWS V14.01,2013-12-10 12:46:00,
2013-12-10 06:51:00,2.7,-3.7,29.79,ESE,112,0.0,0.0,74,0.00,,,0.00,VWS V14.01,2013-12-10 12:51:00,
2013-12-10 07:01:00,2.8,-3.5,29.79,ESE,112,0.0,0.0,74,0.00,,,0.00,VWS V14.01,2013-12-10 13:01:00,
2013-12-10 07:06:00,2.8,-3.5,29.79,ESE,112,0.0,0.0,74,0.00,,,0.00,VWS V14.01,2013-12-10 13:06:00,
2013-12-10 07:11:00,2.7,-3.7,29.79,ESE,112,0.0,0.0,74,0.00,,,0.00,VWS V14.01,2013-12-10 13:11:00,
2013-12-10 07:22:00,2.5,-3.9,29.79,SW,225,0.0,3.4,74,0.00,,,0.00,VWS V14.01,2013-12-10 13:22:00,
2013-12-10 07:31:00,3.7,-2.7,29.79,SSW,202,2.9,2.9,74,0.00,,,0.00,VWS V14.01,2013-12-10 13:31:00,
2013-12-10 07:36:00,5.0,-1.5,29.82,WNW,292,1.6,3.8,74,0.00,,,0.00,VWS V14.01,2013-12-10 13:36:00,
2013-12-10 07:41:00,5.7,-0.8,29.82,SSE,158,2.7,5.8,74,0.00,,,0.00,VWS V14.01,2013-12-10 13:41:00,
2013-12-10 07:46:00,6.1,-0.4,29.82,WSW,248,0.9,5.6,74,0.00,,,0.00,VWS V14.01,2013-12-10 13:46:00,
2013-12-10 07:51:00,6.4,-0.1,29.82,SW,225,2.5,4.0,74,0.00,,,0.00,VWS V14.01,2013-12-10 13:51:00,
2013-12-10 08:01:00,6.3,-0.2,29.82,West,270,4.7,6.5,74,0.00,,,0.00,VWS V14.01,2013-12-10 14:01:00,
2013-12-10 08:06:00,6.1,-0.4,29.85,WSW,248,2.7,7.4,74,0.00,,,0.00,VWS V14.01,2013-12-10 14:06:00,
2013-12-10 08:11:00,5.9,-0.6,29.85,ENE,68,5.6,9.4,74,0.00,,,0.00,VWS V14.01,2013-12-10 14:11:00,
2013-12-10 08:16:00,5.7,-0.8,29.85,West,270,4.9,6.3,74,0.00,,,0.00,VWS V14.01,2013-12-10 14:16:00,
2013-12-10 08:21:00,5.5,-0.9,29.88,South,180,2.5,4.9,74,0.00,,,0.00,VWS V14.01,2013-12-10 14:21:00,
2013-12-10 08:26:00,5.5,-0.9,29.88,NW,315,3.8,5.6,74,0.00,,,0.00,VWS V14.01,2013-12-10 14:26:00,
2013-12-10 08:32:00,5.5,-0.9,29.88,SW,225,2.5,5.4,74,0.00,,,0.00,VWS V14.01,2013-12-10 14:32:00,
2013-12-10 08:41:00,5.4,-1.1,29.88,NW,315,4.3,11.0,74,0.00,,,0.00,VWS V14.01,2013-12-10 14:41:00,
2013-12-10 08:46:00,5.0,-1.5,29.88,WSW,248,4.9,8.7,74,0.00,,,0.00,VWS V14.01,2013-12-10 14:46:00,
2013-12-10 08:51:00,4.5,-2.0,29.88,NNW,338,9.8,13.4,74,0.00,,,0.00,VWS V14.01,2013-12-10 14:51:00,
2013-12-10 08:57:00,4.5,-2.0,29.88,West,270,2.9,9.8,74,0.00,,,0.00,VWS V14.01,2013-12-10 14:57:00,
2013-12-10 09:06:00,4.1,-2.3,29.91,SSW,202,3.1,7.6,74,0.00,,,0.00,VWS V14.01,2013-12-10 15:06:00,
2013-12-10 09:11:00,3.9,-2.5,29.91,NW,315,3.6,8.7,74,0.00,,,0.00,VWS V14.01,2013-12-10 15:11:00,
2013-12-10 09:17:00,3.9,-2.5,29.91,SSE,158,2.9,6.3,74,0.00,,,0.00,VWS V14.01,2013-12-10 15:17:00,
2013-12-10 09:26:00,3.7,-2.7,29.94,NW,315,2.7,9.8,74,0.00,,,0.00,VWS V14.01,2013-12-10 15:26:00,
2013-12-10 09:31:00,3.7,-2.7,29.94,East,90,4.3,9.4,74,0.00,,,0.00,VWS V14.01,2013-12-10 15:31:00,
2013-12-10 09:37:00,3.7,-2.7,29.94,WNW,292,1.3,7.8,74,0.00,,,0.00,VWS V14.01,2013-12-10 15:37:00,
2013-12-10 09:46:00,3.7,-2.7,29.94,West,270,2.7,9.8,74,0.00,,,0.00,VWS V14.01,2013-12-10 15:46:00,
2013-12-10 09:51:00,3.7,-2.7,29.97,SSW,202,4.9,11.0,74,0.00,,,0.00,VWS V14.01,2013-12-10 15:51:00,
2013-12-10 09:56:00,3.6,-2.8,29.97,WSW,248,5.6,5.6,74,0.00,,,0.00,VWS V14.01,2013-12-10 15:56:00,
2013-12-10 10:01:00,3.2,-3.2,29.97,SSW,202,4.3,6.5,74,0.00,,,0.00,VWS V14.01,2013-12-10 16:01:00,
2013-12-10 10:06:00,2.8,-3.5,29.94,WNW,292,3.6,7.2,74,0.00,,,0.00,VWS V14.01,2013-12-10 16:06:00,
2013-12-10 10:11:00,2.8,-3.5,29.94,WNW,292,1.6,10.5,74,0.00,,,0.00,VWS V14.01,2013-12-10 16:11:00,
2013-12-10 10:22:00,3.0,-3.4,29.94,NW,315,3.6,5.8,74,0.00,,,0.00,VWS V14.01,2013-12-10 16:22:00,
2013-12-10 10:31:00,3.2,-3.2,29.94,WSW,248,3.8,6.3,74,0.00,,,0.00,VWS V14.01,2013-12-10 16:31:00,
2013-12-10 10:36:00,3.4,-3.0,29.91,South,180,7.6,7.6,74,0.00,,,0.00,VWS V14.01,2013-12-10 16:36:00,
2013-12-10 10:41:00,3.4,-3.0,29.91,NNE,22,5.4,8.5,74,0.00,,,0.00,VWS V14.01,2013-12-10 16:41:00,
2013-12-10 10:51:00,3.6,-2.8,29.94,NNW,338,2.5,7.6,74,0.00,,,0.00,VWS V14.01,2013-12-10 16:51:00,
2013-12-10 10:56:00,3.7,-2.7,29.94,WNW,292,3.8,8.1,74,0.00,,,0.00,VWS V14.01,2013-12-10 16:56:00,
2013-12-10 11:06:00,3.6,-2.8,29.97,West,270,3.4,5.8,74,0.00,,,0.00,VWS V14.01,2013-12-10 17:06:00,
2013-12-10 11:11:00,3.7,-2.7,29.97,North,0,1.1,5.6,74,0.00,,,0.00,VWS V14.01,2013-12-10 17:11:00,
2013-12-10 11:16:00,3.9,-2.5,29.97,SW,225,2.2,5.6,74,0.00,,,0.00,VWS V14.01,2013-12-10 17:16:00,
2013-12-10 11:21:00,4.1,-2.3,29.97,West,270,2.5,9.6,74,0.00,,,0.00,VWS V14.01,2013-12-10 17:21:00,
2013-12-10 11:26:00,4.3,-2.2,29.97,NW,315,1.6,8.7,74,0.00,,,0.00,VWS V14.01,2013-12-10 17:26:00,
2013-12-10 11:36:00,4.8,-1.6,29.97,WNW,292,7.4,10.1,74,0.00,,,0.00,VWS V14.01,2013-12-10 17:36:00,
2013-12-10 11:41:00,5.2,-1.3,29.97,SSE,158,2.7,7.6,74,0.00,,,0.00,VWS V14.01,2013-12-10 17:41:00,
2013-12-10 11:46:00,5.5,-0.9,29.97,WSW,248,4.3,8.5,74,0.00,,,0.00,VWS V14.01,2013-12-10 17:46:00,
2013-12-10 11:56:00,6.1,-0.4,30.00,West,270,3.8,7.4,74,0.00,,,0.00,VWS V14.01,2013-12-10 17:56:00,
2013-12-10 12:01:00,6.4,-0.1,30.00,South,180,3.1,7.2,74,0.00,,,0.00,VWS V14.01,2013-12-10 18:01:00,
2013-12-10 12:06:00,6.8,0.3,30.00,SE,135,2.5,6.3,74,0.00,,,0.00,VWS V14.01,2013-12-10 18:06:00,
2013-12-10 12:11:00,7.0,0.5,30.00,West,270,8.7,8.7,74,0.00,,,0.00,VWS V14.01,2013-12-10 18:11:00,
2013-12-10 12:16:00,6.8,0.3,30.00,SSW,202,2.7,9.4,74,0.00,,,0.00,VWS V14.01,2013-12-10 18:16:00,
2013-12-10 12:26:00,7.7,1.2,30.00,SW,225,5.6,8.5,74,0.00,,,0.00,VWS V14.01,2013-12-10 18:26:00,
2013-12-10 12:36:00,7.9,1.3,30.00,SSE,158,3.4,8.7,74,0.00,,,0.00,VWS V14.01,2013-12-10 18:36:00,
2013-12-10 12:41:00,7.9,1.3,30.00,WSW,248,5.4,7.4,74,0.00,,,0.00,VWS V14.01,2013-12-10 18:41:00,
2013-12-10 12:46:00,8.1,1.5,30.00,West,270,8.1,8.1,74,0.00,,,0.00,VWS V14.01,2013-12-10 18:46:00,
2013-12-10 12:51:00,8.4,1.9,30.00,WNW,292,4.5,8.1,74,0.00,,,0.00,VWS V14.01,2013-12-10 18:51:00,
2013-12-10 13:01:00,8.8,2.2,30.00,SW,225,2.0,5.4,74,0.00,,,0.00,VWS V14.01,2013-12-10 19:01:00,
2013-12-10 13:06:00,8.6,2.0,30.03,NW,315,6.3,7.8,74,0.00,,,0.00,VWS V14.01,2013-12-10 19:06:00,
2013-12-10 13:11:00,8.8,2.2,30.03,NNE,22,3.1,6.7,74,0.00,,,0.00,VWS V14.01,2013-12-10 19:11:00,
2013-12-10 13:16:00,9.3,2.7,30.03,South,180,2.2,4.9,74,0.00,,,0.00,VWS V14.01,2013-12-10 19:16:00,
2013-12-10 13:21:00,9.1,2.5,30.00,SSW,202,3.1,7.2,74,0.00,,,0.00,VWS V14.01,2013-12-10 19:21:00,
2013-12-10 13:26:00,9.3,2.7,30.00,East,90,3.1,7.6,74,0.00,,,0.00,VWS V14.01,2013-12-10 19:26:00,
2013-12-10 13:31:00,9.5,2.9,30.00,WSW,248,1.6,4.5,74,0.00,,,0.00,VWS V14.01,2013-12-10 19:31:00,
2013-12-10 13:41:00,9.7,3.1,30.00,South,180,6.0,7.2,74,0.00,,,0.00,VWS V14.01,2013-12-10 19:41:00,
2013-12-10 13:46:00,9.3,2.7,30.00,WSW,248,2.9,7.4,74,0.00,,,0.00,VWS V14.01,2013-12-10 19:46:00,
2013-12-10 13:51:00,9.3,2.7,30.03,West,270,2.7,7.4,74,0.00,,,0.00,VWS V14.01,2013-12-10 19:51:00,
2013-12-10 13:56:00,9.7,3.1,30.03,SSE,158,4.3,6.3,74,0.00,,,0.00,VWS V14.01,2013-12-10 19:56:00,
2013-12-10 14:01:00,10.0,3.4,30.03,West,270,8.1,8.1,74,0.00,,,0.00,VWS V14.01,2013-12-10 20:01:00,
2013-12-10 14:06:00,10.0,3.4,30.03,SW,225,3.1,9.8,74,0.00,,,0.00,VWS V14.01,2013-12-10 20:06:00,
2013-12-10 14:12:00,10.2,3.6,30.03,WSW,248,4.3,11.0,74,0.00,,,0.00,VWS V14.01,2013-12-10 20:12:00,
2013-12-10 14:21:00,9.7,3.1,30.03,SW,225,2.7,6.3,74,0.00,,,0.00,VWS V14.01,2013-12-10 20:21:00,
2013-12-10 14:26:00,9.7,3.1,30.03,SW,225,2.0,5.6,74,0.00,,,0.00,VWS V14.01,2013-12-10 20:26:00,
2013-12-10 14:31:00,9.5,2.9,30.03,SSW,202,2.7,4.9,74,0.00,,,0.00,VWS V14.01,2013-12-10 20:31:00,
2013-12-10 14:37:00,9.3,2.7,30.03,WNW,292,3.1,6.0,74,0.00,,,0.00,VWS V14.01,2013-12-10 20:37:00,
2013-12-10 14:46:00,8.4,1.9,30.03,WNW,292,2.9,7.4,74,0.00,,,0.00,VWS V14.01,2013-12-10 20:46:00,
2013-12-10 14:51:00,8.1,1.5,30.03,WSW,248,3.6,6.0,74,0.00,,,0.00,VWS V14.01,2013-12-10 20:51:00,
2013-12-10 14:56:00,8.1,1.5,30.03,NW,315,2.5,7.4,74,0.00,,,0.00,VWS V14.01,2013-12-10 20:56:00,
2013-12-10 15:01:00,7.7,1.2,30.03,East,90,3.4,4.9,74,0.00,,,0.00,VWS V14.01,2013-12-10 21:01:00,
2013-12-10 15:06:00,7.7,1.2,30.06,North,0,1.3,7.6,74,0.00,,,0.00,VWS V14.01,2013-12-10 21:06:00,
2013-12-10 15:11:00,7.3,0.8,30.06,WNW,292,5.6,8.7,74,0.00,,,0.00,VWS V14.01,2013-12-10 21:11:00,
2013-12-10 15:16:00,7.2,0.6,30.06,NNW,338,3.6,5.6,74,0.00,,,0.00,VWS V14.01,2013-12-10 21:16:00,
2013-12-10 15:21:00,7.0,0.5,30.06,WNW,292,0.9,6.0,74,0.00,,,0.00,VWS V14.01,2013-12-10 21:21:00,
2013-12-10 15:26:00,7.0,0.5,30.06,SSW,202,4.7,8.1,74,0.00,,,0.00,VWS V14.01,2013-12-10 21:26:00,
2013-12-10 15:32:00,6.8,0.3,30.06,NNE,22,1.1,4.7,74,0.00,,,0.00,VWS V14.01,2013-12-10 21:32:00,
2013-12-10 15:41:00,6.3,-0.2,30.06,East,90,0.0,6.9,74,0.00,,,0.00,VWS V14.01,2013-12-10 21:41:00,
2013-12-10 15:46:00,6.1,-0.4,30.06,East,90,0.0,2.7,74,0.00,,,0.00,VWS V14.01,2013-12-10 21:46:00,
2013-12-10 15:52:00,5.9,-0.6,30.03,SE,135,1.1,3.8,74,0.00,,,0.00,VWS V14.01,2013-12-10 21:52:00,
2013-12-10 16:01:00,5.5,-0.9,30.03,WNW,292,0.0,3.8,74,0.00,,,0.00,VWS V14.01,2013-12-10 22:01:00,
2013-12-10 16:16:00,5.0,-1.5,30.03,SSE,158,0.9,4.5,74,0.00,,,0.00,VWS V14.01,2013-12-10 22:16:00,
2013-12-10 16:26:00,4.6,-1.8,30.06,South,180,0.0,4.3,74,0.00,,,0.00,VWS V14.01,2013-12-10 22:26:00,
2013-12-10 16:31:00,4.5,-2.0,30.06,NNW,338,4.7,4.7,74,0.00,,,0.00,VWS V14.01,2013-12-10 22:31:00,
2013-12-10 16:41:00,4.1,-2.3,30.06,NE,45,0.0,3.6,74,0.00,,,0.00,VWS V14.01,2013-12-10 22:41:00,
2013-12-10 16:51:00,3.9,-2.5,30.06,WNW,292,0.0,2.0,74,0.00,,,0.00,VWS V14.01,2013-12-10 22:51:00,
2013-12-10 16:56:00,3.7,-2.7,30.06,SW,225,0.0,2.5,74,0.00,,,0.00,VWS V14.01,2013-12-10 22:56:00,
2013-12-10 17:01:00,3.7,-2.7,30.06,ENE,68,0.0,2.9,74,0.00,,,0.00,VWS V14.01,2013-12-10 23:01:00,
2013-12-10 17:11:00,3.4,-3.0,30.06,NNE,22,0.9,2.9,74,0.00,,,0.00,VWS V14.01,2013-12-10 23:11:00,
2013-12-10 17:16:00,3.4,-3.0,30.06,ENE,68,0.0,4.3,74,0.00,,,0.00,VWS V14.01,2013-12-10 23:16:00,
2013-12-10 17:21:00,3.4,-3.0,30.06,SE,135,0.0,3.4,74,0.00,,,0.00,VWS V14.01,2013-12-10 23:21:00,
2013-12-10 17:26:00,3.4,-3.0,30.06,WNW,292,2.0,2.0,74,0.00,,,0.00,VWS V14.01,2013-12-10 23:26:00,
2013-12-10 17:36:00,3.2,-3.2,30.06,NE,45,0.0,0.0,74,0.00,,,0.00,VWS V14.01,2013-12-10 23:36:00,
2013-12-10 17:41:00,3.2,-3.2,30.06,WSW,248,0.0,0.0,74,0.00,,,0.00,VWS V14.01,2013-12-10 23:41:00,
2013-12-10 17:46:00,3.2,-3.2,30.06,WSW,248,0.0,0.0,74,0.00,,,0.00,VWS V14.01,2013-12-10 23:46:00,
2013-12-10 17:51:00,2.7,-3.7,30.06,NE,45,0.0,1.6,74,0.00,,,0.00,VWS V14.01,2013-12-10 23:51:00,
2013-12-10 18:01:00,2.3,-4.1,30.06,East,90,0.0,0.0,74,0.00,,,0.00,VWS V14.01,2013-12-11 00:01:00,
2013-12-10 18:06:00,1.9,-4.4,30.06,NNE,22,0.0,1.1,74,0.00,,,0.00,VWS V14.01,2013-12-11 00:06:00,
2013-12-10 18:11:00,1.9,-4.4,30.06,ENE,68,0.0,0.0,74,0.00,,,0.00,VWS V14.01,2013-12-11 00:11:00,
2013-12-10 18:21:00,2.1,-4.2,30.09,East,90,0.0,4.3,74,0.00,,,0.00,VWS V14.01,2013-12-11 00:21:00,
2013-12-10 18:26:00,2.5,-3.9,30.09,WSW,248,0.0,1.6,74,0.00,,,0.00,VWS V14.01,2013-12-11 00:26:00,
2013-12-10 18:31:00,2.5,-3.9,30.09,SW,225,0.0,1.3,74,0.00,,,0.00,VWS V14.01,2013-12-11 00:31:00,
2013-12-10 18:36:00,2.5,-3.9,30.09,South,180,0.0,2.2,74,0.00,,,0.00,VWS V14.01,2013-12-11 00:36:00,
2013-12-10 18:46:00,2.7,-3.7,30.09,WSW,248,0.0,1.6,74,0.00,,,0.00,VWS V14.01,2013-12-11 00:46:00,
2013-12-10 18:56:00,2.8,-3.5,30.12,East,90,0.0,0.0,74,0.00,,,0.00,VWS V14.01,2013-12-11 00:56:00,
2013-12-10 19:01:00,2.7,-3.7,30.12,East,90,0.0,0.0,74,0.00,,,0.00,VWS V14.01,2013-12-11 01:01:00,
2013-12-10 19:07:00,2.5,-3.9,30.12,East,90,0.0,0.0,74,0.00,,,0.00,VWS V14.01,2013-12-11 01:07:00,
2013-12-10 19:16:00,2.1,-4.2,30.12,SW,225,0.0,0.0,74,0.00,,,0.00,VWS V14.01,2013-12-11 01:16:00,
2013-12-10 19:21:00,2.1,-4.2,30.12,East,90,0.0,0.0,74,0.00,,,0.00,VWS V14.01,2013-12-11 01:21:00,
2013-12-10 19:26:00,2.1,-4.2,30.12,East,90,0.0,0.0,74,0.00,,,0.00,VWS V14.01,2013-12-11 01:26:00,
2013-12-10 19:36:00,2.1,-4.2,30.12,South,180,0.0,2.0,74,0.00,,,0.00,VWS V14.01,2013-12-11 01:36:00,
2013-12-10 19:41:00,2.5,-3.9,30.12,NE,45,0.0,0.0,74,0.00,,,0.00,VWS V14.01,2013-12-11 01:41:00,
2013-12-10 19:46:00,2.5,-3.9,30.12,NE,45,0.0,0.0,74,0.00,,,0.00,VWS V14.01,2013-12-11 01:46:00,
2013-12-10 19:56:00,2.7,-3.7,30.09,NE,45,0.0,0.0,74,0.00,,,0.00,VWS V14.01,2013-12-11 01:56:00,
2013-12-10 20:01:00,2.8,-3.5,30.09,NE,45,0.0,0.0,74,0.00,,,0.00,VWS V14.01,2013-12-11 02:01:00,
2013-12-10 20:06:00,3.0,-3.4,30.12,NE,45,0.0,0.0,74,0.00,,,0.00,VWS V14.01,2013-12-11 02:06:00,
2013-12-10 20:11:00,3.2,-3.2,30.12,NE,45,0.0,0.0,74,0.00,,,0.00,VWS V14.01,2013-12-11 02:11:00,
2013-12-10 20:16:00,3.2,-3.2,30.12,NE,45,0.0,0.0,74,0.00,,,0.00,VWS V14.01,2013-12-11 02:16:00,
2013-12-10 20:21:00,3.6,-2.8,30.12,NE,45,0.0,0.0,74,0.00,,,0.00,VWS V14.01,2013-12-11 02:21:00,
2013-12-10 20:26:00,3.6,-2.8,30.12,NE,45,0.0,0.0,74,0.00,,,0.00,VWS V14.01,2013-12-11 02:26:00,
2013-12-10 20:31:00,3.7,-2.7,30.12,NE,45,0.0,0.0,74,0.00,,,0.00,VWS V14.01,2013-12-11 02:31:00,
2013-12-10 20:36:00,3.7,-2.7,30.12,SE,135,0.0,2.9,74,0.00,,,0.00,VWS V14.01,2013-12-11 02:36:00,
2013-12-10 20:42:00,3.9,-2.5,30.12,NNE,22,0.0,0.0,74,0.00,,,0.00,VWS V14.01,2013-12-11 02:42:00,
2013-12-10 20:51:00,4.8,-1.6,30.12,ENE,68,0.0,1.6,74,0.00,,,0.00,VWS V14.01,2013-12-11 02:51:00,
2013-12-10 20:56:00,5.2,-1.3,30.12,SSW,202,0.9,2.9,74,0.00,,,0.00,VWS V14.01,2013-12-11 02:56:00,
2013-12-10 21:06:00,5.9,-0.6,30.12,WNW,292,2.2,2.2,74,0.00,,,0.00,VWS V14.01,2013-12-11 03:06:00,
2013-12-10 21:16:00,6.4,-0.1,30.12,NNE,22,0.0,2.5,74,0.00,,,0.00,VWS V14.01,2013-12-11 03:16:00,
2013-12-10 21:21:00,6.4,-0.1,30.15,SSW,202,0.0,1.3,74,0.00,,,0.00,VWS V14.01,2013-12-11 03:21:00,
2013-12-10 21:31:00,6.8,0.3,30.15,SSW,202,1.6,5.8,74,0.00,,,0.00,VWS V14.01,2013-12-11 03:31:00,
2013-12-10 21:41:00,7.2,0.6,30.15,NNW,338,1.1,4.0,74,0.00,,,0.00,VWS V14.01,2013-12-11 03:41:00,
2013-12-10 21:46:00,7.2,0.6,30.15,SSE,158,2.5,3.4,74,0.00,,,0.00,VWS V14.01,2013-12-11 03:46:00,
2013-12-10 21:56:00,7.2,0.6,30.15,WNW,292,2.0,3.8,74,0.00,,,0.00,VWS V14.01,2013-12-11 03:56:00,
2013-12-10 22:01:00,7.3,0.8,30.15,WNW,292,0.0,4.0,74,0.00,,,0.00,VWS V14.01,2013-12-11 04:01:00,
2013-12-10 22:06:00,7.3,0.8,30.15,SW,225,2.0,2.0,74,0.00,,,0.00,VWS V14.01,2013-12-11 04:06:00,
2013-12-10 22:16:00,7.5,1.0,30.15,SW,225,1.3,2.7,74,0.00,,,0.00,VWS V14.01,2013-12-11 04:16:00,
2013-12-10 22:21:00,7.5,1.0,30.15,WSW,248,0.0,2.9,74,0.00,,,0.00,VWS V14.01,2013-12-11 04:21:00,
2013-12-10 22:26:00,7.5,1.0,30.15,WSW,248,1.6,2.5,74,0.00,,,0.00,VWS V14.01,2013-12-11 04:26:00,
2013-12-10 22:31:00,7.7,1.2,30.15,ENE,68,0.0,2.0,74,0.00,,,0.00,VWS V14.01,2013-12-11 04:31:00,
2013-12-10 22:36:00,7.7,1.2,30.18,South,180,3.6,4.0,74,0.00,,,0.00,VWS V14.01,2013-12-11 04:36:00,
2013-12-10 22:46:00,7.9,1.3,30.18,SE,135,2.2,2.9,74,0.00,,,0.00,VWS V14.01,2013-12-11 04:46:00,
2013-12-10 22:56:00,7.9,1.3,30.18,South,180,0.0,2.5,74,0.00,,,0.00,VWS V14.01,2013-12-11 04:56:00,
2013-12-10 23:01:00,7.9,1.3,30.18,East,90,0.0,2.5,74,0.00,,,0.00,VWS V14.01,2013-12-11 05:01:00,
2013-12-10 23:06:00,7.9,1.3,30.18,WNW,292,2.2,2.5,74,0.00,,,0.00,VWS V14.01,2013-12-11 05:06:00,
2013-12-10 23:11:00,7.9,1.3,30.18,WSW,248,1.6,2.5,74,0.00,,,0.00,VWS V14.01,2013-12-11 05:11:00,
2013-12-10 23:16:00,8.1,1.5,30.18,SSW,202,0.0,3.8,74,0.00,,,0.00,VWS V14.01,2013-12-11 05:16:00,
2013-12-10 23:21:00,8.1,1.5,30.18,WSW,248,0.0,2.5,74,0.00,,,0.00,VWS V14.01,2013-12-11 05:21:00,
2013-12-10 23:26:00,8.1,1.5,30.18,SW,225,0.0,2.5,74,0.00,,,0.00,VWS V14.01,2013-12-11 05:26:00,
2013-12-10 23:31:00,8.1,1.5,30.18,ENE,68,0.0,2.0,74,0.00,,,0.00,VWS V14.01,2013-12-11 05:31:00,
2013-12-10 23:36:00,8.1,1.5,30.18,NNW,338,1.3,3.1,74,0.00,,,0.00,VWS V14.01,2013-12-11 05:36:00,
2013-12-10 23:51:00,8.1,1.5,30.18,North,0,1.3,2.0,74,0.00,,,0.00,VWS V14.01,2013-12-11 05:51:00,
2013-12-10 23:57:00,8.1,1.5,30.18,SW,225,0.0,1.3,74,0.00,,,0.00,VWS V14.01,2013-12-11 05:57:00,